Location: �mondeville
(49.4591°N, 1.3431°W)
Time: 22:53:04
(UTC+00:00)

ADEOS II - Pass Details

Date: 22 October 2019
Orbit: 800 x 800 km, 98.5° (Epoch: 20 November)

Event Time Altitude Azimuth Distance (km) Brightness Sun altitude
Rises 02:37:49 0° 16° (NNE) 3,323 5.9 -38.2°
Reaches altitude 10° 02:40:11 10° 19° (NNE) 2,388 5.0 -37.9°
Enters shadow 02:42:04 23° 23° (NNE) 1,669 4.1 -37.6°
